Change the Weather History Date:

Sunday, April 14, 2013

  Actual Average Record
Temperature  
Mean Temperature 38 °F -  
Max Temperature 42 °F 55 °F 89 °F (2003)
Min Temperature 33 °F 34 °F 18 °F (1962)
Degree Days  
Heating Degree Days 28    
Moisture  
Dew Point 32 °F    
Average Humidity 87    
Maximum Humidity 100    
Minimum Humidity 75    
Precipitation  
Precipitation 0.28 in - - ()
Sea Level Pressure  
Sea Level Pressure 29.65 in    
Wind  
Wind Speed 14 mph (East)    
Max Wind Speed 25 mph    
Max Gust Speed 33 mph    
Visibility 8 miles    
Events Rain , Snow    
Averages and records for this station are not official NWS values.
T = Trace of Precipitation, MM = Missing Value Source: NWS Daily Summary

Daily Weather History Graph

Daily Weather History Graph

Search for Another Location

Airport or City:

Trip Planner

Search our weather history database for the weather conditions in past years. The results will help you decide how hot, cold, wet, or windy it might be!

Date:

Astronomy

Apr. 14, 2013 Rise Set
Actual Time 6:30 AM CDT 7:56 PM CDT
Civil Twilight 6:00 AM CDT 8:26 PM CDT
Nautical Twilight 5:24 AM CDT 9:02 PM CDT
Astronomical Twilight 4:45 AM CDT 9:41 PM CDT
Moon 9:01 AM CDT (4/14) No Moon Set
Length of Visible Light 14h 25m
Length of Day
13h 25m
Waxing Crescent, 17% of the Moon is Illuminated
Apr 14
Waxing Crescent
Apr 18
First Quarter
Apr 25
Full
May 2
Last Quarter
May 9
New

Hourly Weather History & Observations

Time (CDT) Temp. Windchill Dew Point Humidity Pressure Visibility Wind Dir Wind Speed Gust Speed Precip Events Conditions
12:14 AM 33.8 °F 26.4 °F 26.6 °F 75% 29.91 in 10.0 mi East 9.2 mph - N/A   Overcast
12:34 AM 33.8 °F 26.4 °F 26.6 °F 75% 29.90 in 10.0 mi East 9.2 mph - N/A   Overcast
12:54 AM 33.8 °F 25.3 °F 26.6 °F 75% 29.89 in 10.0 mi East 11.5 mph - N/A   Overcast
1:14 AM 33.8 °F 25.3 °F 26.6 °F 75% 29.89 in 10.0 mi East 11.5 mph - N/A   Overcast
1:34 AM 33.8 °F 24.8 °F 26.6 °F 75% 29.87 in 10.0 mi East 12.7 mph - N/A   Overcast
1:54 AM 33.8 °F 25.3 °F 26.6 °F 75% 29.87 in 10.0 mi East 11.5 mph - N/A   Overcast
2:14 AM 33.8 °F 24.3 °F 26.6 °F 75% 29.85 in 10.0 mi East 13.8 mph - N/A   Overcast
2:34 AM 33.8 °F 25.3 °F 26.6 °F 75% 29.86 in 10.0 mi East 11.5 mph 18.4 mph N/A   Overcast
2:54 AM 33.8 °F 24.8 °F 26.6 °F 75% 29.87 in 10.0 mi East 12.7 mph - N/A   Overcast
3:14 AM 33.8 °F 23.9 °F 26.6 °F 75% 29.85 in 10.0 mi East 15.0 mph 20.7 mph N/A   Overcast
3:34 AM 33.8 °F 23.9 °F 26.6 °F 75% 29.84 in 10.0 mi East 15.0 mph 19.6 mph N/A   Overcast
3:54 AM 33.8 °F 24.8 °F 26.6 °F 75% 29.85 in 10.0 mi East 12.7 mph - N/A   Overcast
4:14 AM 33.8 °F 24.3 °F 26.6 °F 75% 29.85 in 10.0 mi East 13.8 mph 23.0 mph N/A   Overcast
4:34 AM 33.8 °F 23.9 °F 26.6 °F 75% 29.84 in 10.0 mi East 15.0 mph - N/A   Overcast
4:54 AM 33.8 °F 23.2 °F 26.6 °F 75% 29.84 in 10.0 mi East 17.3 mph 23.0 mph N/A   Overcast
5:14 AM 33.8 °F 23.9 °F 28.4 °F 81% 29.83 in 5.0 mi East 15.0 mph 23.0 mph N/A Rain Rain
5:34 AM 33.8 °F 23.2 °F 28.4 °F 81% 29.81 in 3.0 mi East 17.3 mph - N/A Rain Light Rain
5:54 AM 33.8 °F 23.9 °F 28.4 °F 81% 29.80 in 7.0 mi East 15.0 mph 24.2 mph N/A Rain Light Rain
6:14 AM 33.8 °F 22.5 °F 28.4 °F 81% 29.78 in 10.0 mi East 19.6 mph 27.6 mph N/A   Overcast
6:34 AM 33.8 °F 23.2 °F 28.4 °F 81% 29.78 in 10.0 mi East 17.3 mph 23.0 mph N/A   Overcast
7:14 AM 33.8 °F 23.2 °F 30.2 °F 87% 29.76 in 5.0 mi East 17.3 mph 26.5 mph 0.01 in   Heavy Drizzle
7:34 AM 33.8 °F 23.2 °F 30.2 °F 87% 29.76 in 5.0 mi East 17.3 mph 23.0 mph 0.02 in Rain Rain
7:54 AM 33.8 °F 23.2 °F 30.2 °F 87% 29.75 in 5.0 mi East 17.3 mph 20.7 mph 0.03 in Rain Rain
8:14 AM 33.8 °F 23.9 °F 30.2 °F 87% 29.75 in 7.0 mi East 15.0 mph 21.9 mph 0.01 in   Drizzle
8:34 AM 33.8 °F 24.3 °F 30.2 °F 87% 29.74 in 5.0 mi East 13.8 mph 18.4 mph 0.03 in Rain Light Rain
8:54 AM 33.8 °F 24.3 °F 30.2 °F 87% 29.70 in 5.0 mi East 13.8 mph 20.7 mph 0.04 in Rain Light Rain
9:14 AM 33.8 °F 25.3 °F 30.2 °F 87% 29.69 in 5.0 mi East 11.5 mph - 0.01 in Rain Light Rain
9:34 AM 33.8 °F 25.8 °F 30.2 °F 87% 29.68 in 7.0 mi East 10.4 mph - 0.01 in Rain Rain
9:54 AM 33.8 °F 25.8 °F 30.2 °F 87% 29.67 in 10.0 mi East 10.4 mph - 0.01 in Rain Light Rain
10:14 AM 33.8 °F 25.8 °F 32.0 °F 93% 29.66 in 10.0 mi East 10.4 mph - N/A   Overcast
10:34 AM 33.8 °F 26.4 °F 32.0 °F 93% 29.65 in 7.0 mi East 9.2 mph - N/A   Overcast
10:54 AM 33.8 °F 25.8 °F 32.0 °F 93% 29.66 in 10.0 mi East 10.4 mph - N/A   Overcast
11:14 AM 33.8 °F 25.8 °F 32.0 °F 93% 29.65 in 10.0 mi East 10.4 mph - N/A   Overcast
11:34 AM 33.8 °F 25.8 °F 32.0 °F 93% 29.65 in 10.0 mi East 10.4 mph - N/A   Overcast
11:54 AM 35.6 °F 28.0 °F 33.8 °F 93% 29.63 in 7.0 mi East 10.4 mph - N/A   Overcast
12:14 PM 35.6 °F 28.6 °F 33.8 °F 93% 29.62 in 7.0 mi East 9.2 mph - N/A Snow Light Snow
12:34 PM 35.6 °F 28.0 °F 33.8 °F 93% 29.59 in 5.0 mi East 10.4 mph - N/A Snow Light Snow
12:54 PM 35.6 °F 28.0 °F 33.8 °F 93% 29.58 in 5.0 mi East 10.4 mph - 0.01 in Rain Heavy Rain
1:14 PM 35.6 °F 27.1 °F 33.8 °F 93% 29.58 in 5.0 mi East 12.7 mph 18.4 mph N/A Snow Light Snow
1:34 PM 35.6 °F 24.0 °F 33.8 °F 93% 29.56 in 10.0 mi East 23.0 mph 31.1 mph N/A Snow Light Snow
1:54 PM 35.6 °F 23.4 °F 33.8 °F 93% 29.55 in 7.0 mi East 25.3 mph 31.1 mph N/A Snow Light Snow
2:14 PM 35.6 °F 24.8 °F 33.8 °F 93% 29.55 in 10.0 mi East 19.6 mph 29.9 mph N/A Snow Light Snow
2:34 PM 35.6 °F 24.5 °F 33.8 °F 93% 29.55 in 10.0 mi East 20.7 mph 27.6 mph N/A   Overcast
2:54 PM 35.6 °F 23.7 °F 33.8 °F 93% 29.53 in 10.0 mi East 24.2 mph 32.2 mph N/A   Overcast
3:14 PM 35.6 °F 24.8 °F 33.8 °F 93% 29.52 in 10.0 mi East 19.6 mph 29.9 mph N/A   Overcast
3:34 PM 35.6 °F 24.2 °F 33.8 °F 93% 29.50 in 7.0 mi East 21.9 mph 33.4 mph N/A Rain Heavy Rain
3:54 PM 35.6 °F 24.8 °F 35.6 °F 100% 29.49 in 7.0 mi East 19.6 mph 26.5 mph 0.02 in Rain Light Rain
4:14 PM 35.6 °F 24.2 °F 35.6 °F 100% 29.49 in 5.0 mi East 21.9 mph 31.1 mph 0.04 in Rain Heavy Rain
4:34 PM 35.6 °F 24.5 °F 35.6 °F 100% 29.48 in 3.0 mi East 20.7 mph 25.3 mph 0.04 in Rain Rain
4:54 PM 37.4 °F 26.4 °F 35.6 °F 93% 29.47 in 2.0 mi East 23.0 mph 28.8 mph 0.06 in Rain Heavy Rain
5:14 PM 37.4 °F 26.9 °F 35.6 °F 93% 29.46 in 3.0 mi East 20.7 mph 28.8 mph N/A   Overcast
5:34 PM 37.4 °F 25.9 °F 35.6 °F 93% 29.45 in 4.0 mi East 25.3 mph 31.1 mph 0.02 in Rain Heavy Rain
5:54 PM 37.4 °F 26.9 °F 35.6 °F 93% 29.45 in 7.0 mi East 20.7 mph 25.3 mph 0.03 in Rain Rain
6:14 PM 37.4 °F 29.3 °F 35.6 °F 93% 29.46 in 7.0 mi East 12.7 mph 23.0 mph N/A Rain Light Rain
6:34 PM 37.4 °F 29.8 °F 35.6 °F 93% 29.47 in 7.0 mi East 11.5 mph 19.6 mph 0.02 in Rain Light Rain
6:54 PM 37.4 °F 27.5 °F 35.6 °F 93% 29.45 in 7.0 mi East 18.4 mph 21.9 mph 0.08 in Rain Light Rain
7:14 PM 37.4 °F 28.2 °F 35.6 °F 93% 29.45 in 10.0 mi East 16.1 mph 23.0 mph N/A   Mostly Cloudy
7:34 PM 37.4 °F 28.2 °F 35.6 °F 93% 29.44 in 7.0 mi East 16.1 mph - N/A Rain Light Rain
7:54 PM 37.4 °F 28.5 °F 37.4 °F 100% 29.45 in 10.0 mi ESE 15.0 mph 21.9 mph N/A   Overcast
8:14 PM 39.2 °F 32.5 °F 37.4 °F 93% 29.48 in 10.0 mi ESE 10.4 mph - N/A   Overcast
8:34 PM 39.2 °F 31.6 °F 37.4 °F 93% 29.48 in 10.0 mi SE 12.7 mph 17.3 mph N/A   Overcast
8:54 PM 41.0 °F 34.3 °F 39.2 °F 93% 29.51 in 10.0 mi South 11.5 mph 23.0 mph N/A   Overcast
9:14 PM 42.8 °F 34.0 °F 39.2 °F 87% 29.54 in 10.0 mi WSW 20.7 mph - N/A   Scattered Clouds
9:34 PM 42.8 °F 35.4 °F 37.4 °F 81% 29.54 in 10.0 mi WSW 15.0 mph 20.7 mph N/A   Scattered Clouds
9:54 PM 41.0 °F 35.8 °F 37.4 °F 87% 29.55 in 10.0 mi WSW 8.1 mph - N/A   Mostly Cloudy
10:14 PM 41.0 °F 35.8 °F 35.6 °F 81% 29.56 in 10.0 mi SW 8.1 mph - N/A   Mostly Cloudy
10:34 PM 39.2 °F 35.0 °F 35.6 °F 87% 29.56 in 10.0 mi SSW 5.8 mph - N/A   Scattered Clouds
10:54 PM 39.2 °F 34.2 °F 35.6 °F 87% 29.56 in 10.0 mi SSW 6.9 mph - N/A   Scattered Clouds
11:14 PM 39.2 °F 33.0 °F 35.6 °F 87% 29.57 in 10.0 mi SSW 9.2 mph - N/A   Clear
11:34 PM 39.2 °F 33.0 °F 35.6 °F 87% 29.57 in 10.0 mi SSW 9.2 mph - N/A   Clear
11:54 PM 37.4 °F 30.3 °F 35.6 °F 93% 29.57 in 10.0 mi SSW 10.4 mph - N/A   Clear